www.pogodaiklimat.ru

Погода и климат >> Архив погоды >> Лаос >> Attapeu


ПОГОДА в Attapeu

  • Прогноз погоды в Attapeu
  • Монитор погоды в Attapeu
  • Климат города

АРХИВ ПОГОДЫ в Attapeu

Время (UTC), дата Ветер
(напр.,м/с)
 
Видим.   Явления Облачность Т
(С)
Тd
(С)
f
(%)
Тe
(С)
Тes
(С)
Комфортность P
(гПа)
Po
(гПа)
Тmin
(С)
Tmax
(С)
R
(мм)
R24
(мм)
S
(см)
00 9.12 С 1 15 км 1/1 600 м
[Cu hum]
+23.4 +14.9 59 +27 +28 душно 1013.5 1002.6 +23.0
03 9.12 С 1 15 км 3/3 600 м
[Cu hum Ci fib]
+27.8 +16.0 49 +31 +40 душно 1013.6 1002.9
06 9.12 СЗ 2 18 км 3/3 600 м
[Cu hum Ci fib]
+29.0 +16.1 46 +32 +41 душно 1009.9 999.3
09 9.12 З 2 18 км 5/4 600 м
[Cu med, cong Ci sp]
+27.8 +16.0 49 +31 +32 душно 1009.8 999.1
00 10.12 С 1 15 км 1/1 600 м
[Cu hum]
+18.5 +16.9 90 +20 +21 1013.6 1002.5 +18.0
03 10.12 С 1 15 км 3/3 600 м
[Cu hum Ci fib]
+24.7 +16.9 62 +28 +37 душно 1014.1 1003.3
06 10.12 С 1 15 км 3/3 600 м
[Cu hum Ci fib]
+29.8 +17.2 47 +34 +44 очень
душно
1010.5 999.9
09 10.12 С 1 17 км 3/3 600 м
[Cu hum Ci fib]
+31.2 +19.0 48 +36 +38 очень
душно
1009.4 998.8
12 10.12 штиль 0 3000 м дымка {туман} 3/3 600 м
[Cu hum Ci fib]
+26.8 +20.4 68 +33 +33 очень
душно
1011.2 1000.5 +31.5
00 11.12 штиль 0 10 км 9/6 600 м
[Cu Sc Ac As]
+22.4 +19.6 84 +28 +28 душно 1012.9 1002.0 +21.7
03 11.12 штиль 0 10 км 9/6 600 м
[Cu Sc Ac As]
+22.4 +19.6 84 +28 +31 душно 1012.9 1002.0 +21.7
00 12.12 штиль 0 10 км 10/8 600 м
[Cu Sc Ac As]
+30.5 +20.4 55 +37 +37 очень
душно
1013.4 1002.3 +23.0
03 12.12 С 1 10 км 9/6 600 м
[Cu Sc Ac As]
+27.6 +19.8 62 +33 +36 очень
душно
1013.0 1002.3
06 12.12 ЮЗ 1 15 км 6/4 600 м
[Cu med, cong Ac trans Ci sp]
+31.6 +20.2 51 +38 +45 очень
душно
1008.7 998.2
09 12.12 ЮЗ 1 15 км 4/4 600 м
[Cu med, cong Ci fib]
+31.8 +21.8 55 +40 +42 очень
душно
1006.7 996.2
12 12.12 ЮЗ 1 3000 м дымка {туман} 6/4 600 м
[Cu med, cong Ac trans Ci sp]
+27.9 +23.1 75 +37 +37 очень
душно
1008.7 998.0 +31.8
00 13.12 штиль 0 10 км 3/3 600 м
[Cu hum Ci fib]
+22.5 +21.0 91 +29 +30 очень
душно
1010.8 999.9 +22.5
03 13.12 12 км н/о +28.2 +21.2 66 +36 +45 очень
душно
1012.2 1001.5
06 13.12 Ю 1 15 км 3/3 600 м
[Cu hum Ci fib]
+33.0 +22.0 52 +41 +52 опасность
перегрева
1008.3 997.8
09 13.12 Ю 1 15 км 3/3 600 м
[Cu hum Ci fib]
+32.2 +21.9 55 +41 +43 опасность
перегрева
1006.3 995.8
12 13.12 З 1 4000 м дымка {туман} 3/3 600 м
[Cu hum Ci fib]
+28.3 +23.5 75 +38 +38 очень
душно
1008.2 997.6 +32.5
06 14.12 С 1 12 км 5/4 600 м
[Cu med, cong Ci sp]
+33.0 +22.0 52 +41 +50 опасность
перегрева
1009.1 998.4
12 14.12 В 1 2000 м дымка {туман} 9/6 600 м
[Cu Sc Ac As]
+29.0 +23.2 71 +39 +39 очень
душно
1010.1 999.3 +34.5
00 15.12 С 1 10 км 8/5 600 м
[Cu med, cong Ac lent Ci sp]
+21.5 +19.2 87 +26 +27 душно 1012.7 1001.6 +21.0
03 15.12 С 1 15 км 3/3 600 м
[Cu hum Ci fib]
+27.2 +20.4 66 +34 +42 очень
душно
1012.6 1001.9
06 15.12 С 1 17 км 6/4 600 м
[Cu med, cong Ac trans Ci sp]
+32.0 +18.4 44 +37 +44 очень
душно
1009.6 999.0

 

Местоположение метеостанции Attapeu (Лаос): широта 14.82 долгота 106.82 высота над уровнем моря 105 м.

В архиве по умолчанию представлена погода в Attapeu за последнюю неделю. Архивные данные за месяц целиком и за предыдущие месяцы, начиная с января 2011 года, Вы можете получить, выбрав интересующий диапазон дат из раскрывающегося списка и нажав кнопку "Ввод!".

Внимание! Время в таблицах - всемирное. Для получения местного времени необходимо прибавить поправку, которая в Attapeu равна 7 ч.

Смотрите также архив погоды в соседних городах и на ближайших метеорологических станциях:

Погода в Sekong (Лаос) (60 км)
Погода в Saravane (Лаос) (108 км)
Погода в Pakse (Лаос) (117 км)
Погода в Pleiku City (Вьетнам) (158 км)
Погода в Hue (Вьетнам) (197 км)
Погода в Quang Ngai (Вьетнам) (213 км)
Погода в Da Nang (Вьетнам) (215 км)
Погода в Ubon Ratchathani (Таиланд) (216 км)
Погода в Banmethuot (Вьетнам) (274 км)
Погода в Si Saket Agromet (Таиланд) (277 км)

Пояснения к столбцам:

Ветер - указаны скорость ветра в м/с - средняя за 10 мин, порывы в срок и между сроками (в фигурных скобках) и направление, откуда дует ветер: С - северный, СВ - северо-восточный, В - восточный, ЮВ - юго-восточный, Ю - южный, ЮЗ - юго-западный, З - западный, СЗ - северо-западный.
Видимость - горизонтальная дальность видимости в метрах или километрах. При видимости от 1 до 10 км при отсутствии осадков обычно наблюдается дымка, при ухудшении видимости до 1 км и менее - туман. В сухую погоду видимость может ухудшаться дымом, пылью или мглою.
Явления - указаны атмосферные явления, наблюдавшиеся в срок или в последний час перед сроком; фигурными скобками обозначены явления, наблюдавшиеся между сроками (за 1-3 часа до срока); квадратными скобками обозначены град или гололедные отложения с указанием их диаметра в мм.
Облачность - указаны через наклонную черту общая и нижняя облачность в баллах и высота нижней границы облаков в метрах; квадратными скобками обозначены формы облаков: Ci - перистые, Cs - перисто-слоистые, Cc - перисто-кучевые, Ac - высококучевые, As - высокослоистые, Sc - слоисто-кучевые, Ns - слоисто-дождевые, Cu - кучевые, Cb - кучево-дождевые. Подробнее классификацию облаков см. в Атласе облаков (PDF).
T - Температура воздуха - температура, измеренная на высоте 2 м над землей.
Td - Температура точки росы - температура, при понижении до которой содержащийся в воздухе водяной пар достигнет насыщения.
f - Относительная влажность воздуха - влажноcть воздуха, измеренная на высоте 2 м над землей.
Te - Эффективная температура - температура, которую ощущает одетый по сезону человек в тени. Характеристика душности погоды. При расчете учитывается влияние влажности воздуха и скорости ветра на теплоощущения человека.
Tes - Эффективная температура на солнце - температура, которую ощущает человек, с поправкой на солнечный нагрев. Характеристика знойности погоды. Зависит от высоты солнца над горизонтом, облачности и скорости ветра. Ночью, в пасмурную погоду, а также при ветре 12 м/с и более поправка равна нулю.
P - Атмосферное давление - приведенное к уровню моря атмосферное давление.
Po - Атмосферное давление - измеренное на уровне метеостанции атмосферное давление.
Tmin - Минимальная температура - минимум температуры воздуха на высоте 2 м над землей.
Tmax - Максимальная температура - максимум температуры воздуха на высоте 2 м над землей.
R - Количество осадков - Количество выпавших осадков за период времени, мм. При наведении курсора мыши на число - период времени, за который выпало указанное количество осадков.
R24 - Количество осадков - Количество выпавших осадков за 24 часа, мм.
S - Снежный покров - Высота снежного покрова, см. При наведении курсора мыши на число - состояние снежного покрова и степень покрытия местности в баллах.